Location: Coed Ely
(51.5661°N, 3.4150°W)
Time: 22:33:27
(UTC+00:00)

SKYMED 2 - Pass Details

Date: 28 January 2021
Orbit: 621 x 623 km, 97.9° (Epoch: 01 March)

Event Time Altitude Azimuth Distance (km) Brightness Sun altitude
Rises 17:55:17 0° 19° (NNE) 2,917 6.7 -9.3°
Reaches altitude 10° 17:57:36 10° 27° (NNE) 2,005 5.8 -9.6°
Maximum altitude 18:01:43 40° 98° (E) 923 4.0 -10.2°
Drops below altitude 10° 18:05:48 10° 168° (SSE) 1,988 6.2 -10.8°
Sets 18:08:05 0° 176° (S) 2,889 7.1 -11.2°
